Location: W�rzburg
(49.7529°N, 9.8822°E)
Time: 00:52:50
(UTC+01:00)

ISS - Pass Details

Date: 16 November 2017
Orbit: 402 x 407 km, 51.6° (Epoch: 24 November)

Event Time Altitude Azimuth Distance (km) Brightness Sun altitude
Exits shadow 05:38:07 26° 199° (SSW) 843 -2.4 -18.5°
Drops below altitude 10° 05:40:27 10° 155° (SSE) 1,449 -0.6 -18.2°
Sets 05:42:42 0° 143° (SE) 2,305 0.7 -17.8°
